Location: Mount Kobau Star Party
(49.1167°N, 119.7333°W)
Time: 06:26:02
(UTC-07:00)

ACS3 Solar Sail - Pass Details

Date: 25 June 2024
Orbit: 992 x 1023 km, 97.4° (Epoch: 11 July)

Event Time Altitude Azimuth Distance (km) Brightness Sun altitude
Exits shadow 23:01:25 - 191° (S) 2,928 6.8 -12.7°
Reaches altitude 10° 23:01:54 10° 193° (SSW) 2,755 6.7 -12.8°
Maximum altitude 23:07:48 45° 265° (W) 1,334 5.7 -13.2°
Drops below altitude 10° 23:13:44 10° 337° (NNW) 2,765 8.7 -13.6°
Sets 23:16:21 0° 343° (NNW) 3,718 9.7 -13.8°
